[[{"header":{"parameterUnit":"m.s-1","parameterCategory":2,"la1":30.2991,"la2":30.254,"lo1":-89.0895,"lo2":-89.0444,"dy":0.0017,"dx":0.0017,"nx":28,"ny":28,"refTime":"2025-01-27T03:00:00:Z","depth":"0","parameterNumber":2,"parameterNumberName":"U-component_of_CURRENTS"},"data":[0,0,0,0,0,0,0,0,0,0,0,0,0,0,0,0,0,0,0,0,0,0,0,0,0,0,0,0,0,0,0,0,0,0,0,0,0,0,0,0,0,0,0,0,0,0,0,0,0,0,0,0,0,0,0,0,0,0,-0.3104,-0.3105,0,-0.315,-0.3151,-0.3151,-0.3112,-0.311,-0.3109,-0.3107,-0.3043,-0.3043,-0.3042,0,0,0,0,0,0,0,0,0,0,0,0,0,-0.2953,-0.2956,-0.3104,-0.3105,-0.3105,-0.315,-0.3151,-0.3151,-0.3112,-0.311,-0.3108,-0.3106,-0.3043,-0.3043,-0.3042,0,0,0,0,0,0,0,0,0,0,0,0,0,-0.3011,-0.2957,-0.3104,-0.3091,-0.3091,-0.315,-0.3151,-0.3152,-0.3112,-0.311,-0.3108,-0.3105,-0.3043,-0.3043,-0.3042,-0.3088,0,0,-0.3041,-0.3041,0,0,0,0,0,0,0,0,-0.3007,-0.3016,-0.3093,-0.3092,-0.3092,-0.3123,-0.3074,-0.3125,-0.3113,-0.3104,-0.3107,-0.3104,-0.3062,-0.306,-0.3075,-0.3085,-0.3082,-0.3041,-0.3041,-0.3041,-0.3041,0,0,0,0,0,0,0,-0.3003,-0.3014,-0.3122,-0.3093,-0.3093,-0.3074,-0.3079,-0.3084,-0.3093,-0.3104,-0.3102,-0.3108,-0.306,-0.3075,-0.3072,-0.3082,-0.3041,-0.3041,-0.3041,-0.3041,-0.3147,-0.315,0,0,0,0,0,0,-0.3004,-0.3011,-0.312,-0.3123,-0.3043,-0.3079,-0.3085,-0.3115,-0.3095,-0.3091,-0.311,-0.3106,-0.3077,-0.3073,-0.307,-0.308,-0.3041,-0.3041,-0.304,-0.3144,-0.3148,-0.3151,0,0,0,0,0,0,-0.3001,-0.3014,-0.3118,-0.3066,-0.3078,-0.3084,-0.3118,-0.3117,-0.312,-0.3101,-0.3094,-0.3112,-0.3075,-0.307,-0.3089,-0.3078,-0.3041,-0.304,-0.314,-0.3145,-0.3149,-0.3127,0,0,0,0,0,0,-0.2997,-0.3014,-0.303,-0.3068,-0.3081,-0.3159,-0.312,-0.312,-0.3129,-0.3124,-0.3101,-0.3093,-0.3073,-0.309,-0.3089,-0.3077,-0.304,-0.3136,-0.3142,-0.3148,-0.3124,-0.3131,-0.3136,0,0,0,0,0,-0.2992,-0.3035,-0.3032,-0.3044,-0.3107,-0.3161,-0.3167,-0.3161,-0.3131,-0.315,-0.314,-0.3093,-0.3125,-0.3093,-0.309,-0.3078,-0.3134,-0.3141,-0.3147,-0.3122,-0.3129,-0.3136,0,0,0,0,0,0,-0.2974,-0.3036,-0.3033,-0.309,-0.3121,-0.3154,-0.317,-0.3165,-0.3175,-0.316,-0.313,-0.3125,-0.3141,-0.3138,-0.3103,-0.3138,-0.3123,-0.313,-0.3105,-0.3112,-0.3118,-0.3083,-0.304,0,0,0,0,0,-0.2981,-0.3018,-0.3074,-0.3106,-0.3133,-0.3149,-0.3165,-0.3167,-0.3183,-0.3184,-0.3173,-0.3171,-0.3176,-0.3163,-0.3182,-0.3193,-0.3144,-0.3193,-0.3199,-0.3203,-0.3182,-0.3099,-0.3092,-0.3173,-0.3173,-0.3173,0,0,-0.297,-0.3012,-0.3026,-0.3102,-0.3123,-0.3163,-0.3153,-0.3188,-0.3201,-0.3176,-0.3191,-0.3196,-0.3194,-0.321,-0.3215,-0.3192,-0.3167,-0.3211,-0.3214,-0.319,-0.3104,-0.3095,-0.3087,-0.3178,-0.3177,-0.3176,0,0,-0.2969,-0.3021,-0.305,-0.3093,-0.3142,-0.3168,-0.3179,-0.3226,-0.323,-0.3263,-0.3245,-0.3242,-0.3266,-0.3244,-0.3237,-0.3293,-0.3214,-0.3313,-0.3282,-0.3202,-0.3192,-0.3182,-0.3135,-0.3121,-0.3296,-0.3296,-0.3296,0,-0.2947,-0.2985,-0.3062,-0.3107,-0.3112,-0.317,-0.3181,-0.323,-0.3268,-0.3254,-0.3269,-0.3269,-0.3272,-0.324,-0.3269,-0.3293,-0.3247,-0.3238,-0.3198,-0.3188,-0.3178,-0.3132,-0.3116,-0.3296,-0.3296,-0.3296,-0.3296,0,-0.2961,-0.2991,-0.3016,-0.308,-0.3122,-0.3139,-0.3217,-0.3253,-0.3263,-0.3276,-0.3271,-0.3287,-0.3264,-0.3283,-0.3289,-0.3233,-0.3226,-0.3219,-0.3154,-0.3166,-0.312,-0.3104,-0.3295,-0.3295,-0.3295,-0.3295,0,0,-0.2862,-0.2992,-0.2985,-0.299,-0.3088,-0.3113,-0.3175,-0.3202,-0.3186,-0.3249,-0.3193,-0.3242,-0.3231,-0.3227,-0.3228,-0.317,-0.3089,-0.3165,-0.316,-0.3072,-0.292,-0.2889,-0.2869,-0.3052,-0.3049,-0.3047,-0.2921,0,-0.2805,-0.2858,-0.2937,-0.2945,-0.2963,-0.3044,-0.3079,-0.3128,-0.3158,-0.3151,-0.3167,-0.3148,-0.3217,-0.3182,-0.3146,-0.3107,-0.3043,-0.3124,-0.2962,-0.2958,-0.2887,-0.2847,-0.2728,-0.2603,-0.2905,-0.2903,-0.2901,0,-0.2742,-0.2783,-0.2793,-0.2838,-0.285,-0.2879,-0.289,-0.2935,-0.2985,-0.3001,-0.3006,-0.303,-0.3007,-0.3041,-0.2963,-0.3007,-0.2962,-0.2929,-0.2923,-0.2879,-0.2895,-0.2641,-0.2562,-0.254,-0.2876,-0.2878,-0.288,0,-0.258,-0.2648,-0.2634,-0.2658,-0.276,-0.2757,-0.2796,-0.2861,-0.2886,-0.2896,-0.2896,-0.2883,-0.287,-0.2819,-0.2842,-0.2868,-0.2729,-0.2747,-0.2673,-0.2672,-0.2531,-0.2522,-0.2361,-0.2635,-0.2635,-0.2635,-0.2636,0,-0.2462,-0.2443,-0.2558,-0.2558,-0.253,-0.2631,-0.2608,-0.2663,-0.2712,-0.2723,-0.2799,-0.2793,-0.2808,-0.2779,-0.2769,-0.269,-0.2673,-0.2641,-0.2616,-0.2531,-0.2524,-0.247,-0.2509,-0.2631,-0.2632,-0.2632,-0.2633,0,-0.231,-0.2378,-0.2378,-0.2455,-0.247,-0.2458,-0.2543,-0.2541,-0.2604,-0.2617,-0.2621,-0.2698,-0.2666,-0.2683,-0.2592,-0.2591,-0.2458,-0.2477,-0.2406,-0.2375,-0.2284,-0.2329,-0.2156,-0.2098,-0.2343,-0.2341,-0.2339,0,-0.2247,-0.2233,-0.2301,-0.2307,-0.2345,-0.236,-0.238,-0.2472,-0.2497,-0.257,-0.2563,-0.256,-0.2558,-0.2459,-0.2415,-0.2338,-0.236,-0.2192,-0.2216,-0.2231,-0.2262,-0.2305,-0.2273,-0.2034,-0.203,-0.2027,-0.2025,0,-0.2125,-0.2152,-0.217,-0.2189,-0.2205,-0.223,-0.227,-0.2281,-0.2387,-0.2403,-0.2418,-0.2407,-0.2364,-0.2247,-0.2182,-0.2134,-0.2133,-0.2124,-0.2117,-0.1979,-0.203,-0.1979,-0.2213,-0.1996,-0.1999,-0.2001,-0.2003,-0.2004,-0.2029,-0.202,-0.2047,-0.2049,-0.2072,-0.2076,-0.2054,-0.212,-0.2129,-0.2141,-0.222,-0.2168,-0.2116,-0.2006,-0.1958,-0.1836,-0.1925,-0.178,-0.1826,-0.1864,-0.1817,-0.2018,-0.1798,-0.18,-0.1801,-0.1802,-0.1804,0,-0.1904,-0.1906,-0.1907,-0.1908,-0.1878,-0.1937,-0.1956,-0.1923,-0.1893,-0.1942,-0.1929,-0.1868,-0.1751,-0.1727,-0.1628,-0.1556,-0.153,-0.1532,-0.1541,-0.1517,-0.1637,-0.1632,-0.1392,-0.1392,-0.1392,-0.1392,-0.1392,-0.1392,-0.1838,-0.1789,-0.1792,-0.17,-0.1699,-0.1619,-0.1599,-0.1585,-0.1594,-0.1544,-0.1532,-0.1555,-0.155,-0.162,-0.1499,-0.1423,-0.1403,-0.1357,-0.1415,-0.15,-0.1527,-0.1553,-0.1554,-0.1301,-0.1301,-0.121,-0.1209,-0.1209]},{"header":{"parameterUnit":"m.s-1","parameterCategory":2,"la1":30.2991,"la2":30.254,"lo1":-89.0895,"lo2":-89.0444,"dy":0.0017,"dx":0.0017,"nx":28,"ny":28,"refTime":"2025-01-27T03:00:00:Z","depth":"0","parameterNumber":3,"parameterNumberName":"V-component_of_CURRENTS"},"data":[0,0,0,0,0,0,0,0,0,0,0,0,0,0,0,0,0,0,0,0,0,0,0,0,0,0,0,0,0,0,0,0,0,0,0,0,0,0,0,0,0,0,0,0,0,0,0,0,0,0,0,0,0,0,0,0,0,0,0.0226,0.0228,0,0.0407,0.041,0.0412,0.0514,0.0513,0.0513,0.0513,0.0746,0.0752,0.0759,0,0,0,0,0,0,0,0,0,0,0,0,0,0.0061,0.0063,0.0226,0.0228,0.0229,0.0407,0.041,0.0413,0.0514,0.0513,0.0513,0.0513,0.0744,0.0752,0.0759,0,0,0,0,0,0,0,0,0,0,0,0,0,0.0181,0.0064,0.0226,0.0297,0.0305,0.0406,0.041,0.0414,0.0514,0.0513,0.0513,0.0513,0.0742,0.0751,0.076,0.0824,0,0,0.0789,0.0794,0,0,0,0,0,0,0,0,0.0174,0.0187,0.0285,0.0292,0.0301,0.0433,0.0437,0.0552,0.0514,0.044,0.0513,0.0513,0.0643,0.0661,0.0702,0.0835,0.0845,0.079,0.0796,0.08,0.0803,0,0,0,0,0,0,0,0.0165,0.0181,0.0303,0.0287,0.0297,0.0352,0.0369,0.046,0.0546,0.0446,0.0453,0.0465,0.0649,0.0693,0.0708,0.0849,0.079,0.0799,0.0804,0.0808,0.0989,0.0988,0,0,0,0,0,0,0.0128,0.0172,0.0297,0.0308,0.023,0.0355,0.0373,0.0395,0.0544,0.0564,0.0465,0.0469,0.0676,0.0697,0.0717,0.0744,0.08,0.0809,0.0815,0.099,0.0989,0.0988,0,0,0,0,0,0,0.0124,0.0138,0.029,0.024,0.0262,0.0356,0.0381,0.0399,0.0432,0.0556,0.0579,0.0477,0.0677,0.0703,0.0774,0.0756,0.0813,0.0822,0.0991,0.0989,0.0988,0.0835,0,0,0,0,0,0,0.0119,0.0136,0.0136,0.0237,0.0263,0.0325,0.0381,0.0402,0.0438,0.0445,0.0575,0.0597,0.0679,0.0758,0.0783,0.077,0.083,0.0992,0.099,0.0988,0.0842,0.0829,0.0818,0,0,0,0,0,0.0112,0.0107,0.0135,0.015,0.0262,0.0324,0.0342,0.0413,0.0438,0.0444,0.0526,0.0592,0.0764,0.0766,0.0795,0.0784,0.0993,0.0991,0.0989,0.0847,0.0831,0.0818,0,0,0,0,0,0,0.0035,0.012,0.0152,0.0173,0.0231,0.0338,0.0348,0.0399,0.0472,0.0476,0.0593,0.062,0.0674,0.0749,0.0747,0.0829,0.0886,0.0889,0.0768,0.0755,0.0743,0.0737,0.0837,0,0,0,0,0,0.0017,0.0031,0.0122,0.0132,0.0158,0.0251,0.0283,0.033,0.0408,0.044,0.0531,0.0619,0.0693,0.0735,0.0817,0.0869,0.0907,0.0878,0.0866,0.0855,0.0869,0.0881,0.0871,0.0981,0.0981,0.0981,0,0,-0.0015,0.0033,0.004,0.0115,0.0169,0.02,0.0271,0.0306,0.0335,0.0455,0.0515,0.0587,0.0697,0.0749,0.0779,0.0807,0.0836,0.0852,0.0842,0.0863,0.0878,0.0867,0.0857,0.0979,0.0979,0.098,0,0,-0.0077,-0.0025,-0.0035,0.0012,0.0076,0.0144,0.0144,0.0243,0.0288,0.0351,0.0434,0.0491,0.0617,0.0684,0.0735,0.0711,0.0773,0.0729,0.0671,0.068,0.0671,0.0663,0.0659,0.0653,0.0722,0.0721,0.0721,0,-0.0123,-0.0109,-0.0032,-0.0023,0.0002,0.0109,0.0107,0.0179,0.0285,0.0314,0.0345,0.0499,0.0588,0.065,0.0642,0.0686,0.0693,0.071,0.0662,0.0656,0.0651,0.0649,0.0644,0.0714,0.0715,0.0716,0.0716,0,-0.0183,-0.017,-0.0174,-0.0123,-0.0084,-0.0071,0.0032,0.0077,0.014,0.0212,0.0278,0.039,0.0477,0.0505,0.0578,0.0587,0.0602,0.064,0.0689,0.063,0.0632,0.063,0.0703,0.0706,0.0708,0.071,0,0,-0.0291,-0.0232,-0.0233,-0.0227,-0.0139,-0.0112,-0.0066,0.0007,0.0025,0.0129,0.0146,0.028,0.0334,0.0396,0.0477,0.0501,0.0465,0.0548,0.0552,0.053,0.0463,0.0536,0.054,0.0479,0.0479,0.0478,0.0464,0,-0.0366,-0.0382,-0.0327,-0.0334,-0.0327,-0.0227,-0.0195,-0.0116,-0.0038,0.0011,0.0127,0.0184,0.0295,0.0314,0.0357,0.0448,0.0457,0.0465,0.054,0.0542,0.0602,0.054,0.0577,0.0574,0.0462,0.0462,0.0462,0,-0.0439,-0.0438,-0.0466,-0.0433,-0.0425,-0.0409,-0.035,-0.0306,-0.02,-0.0149,-0.0068,0.0028,0.0113,0.019,0.031,0.0303,0.0373,0.0437,0.0438,0.0569,0.0612,0.0627,0.0575,0.0717,0.0458,0.0459,0.0459,0,-0.0538,-0.0533,-0.0561,-0.0547,-0.049,-0.049,-0.0455,-0.0363,-0.033,-0.0251,-0.0232,-0.0116,-0.0056,0.0045,0.0236,0.0244,0.035,0.0372,0.0499,0.0503,0.0589,0.0603,0.0681,0.0426,0.0426,0.0426,0.0426,0,-0.0622,-0.0642,-0.0612,-0.062,-0.0657,-0.0587,-0.0601,-0.0545,-0.0483,-0.0455,-0.0322,-0.0274,-0.0089,0.0025,0.0164,0.0342,0.0295,0.0485,0.0508,0.0535,0.0544,0.072,0.0782,0.0425,0.0425,0.0426,0.0426,0,-0.0701,-0.0684,-0.0712,-0.0695,-0.0695,-0.0715,-0.0683,-0.0683,-0.0617,-0.0584,-0.0566,-0.0404,-0.0246,-0.005,0.0122,0.0262,0.05,0.048,0.0503,0.053,0.0775,0.0826,0.0947,0.1027,0.0577,0.0579,0.0581,0,-0.0735,-0.0759,-0.0774,-0.0798,-0.0792,-0.0806,-0.0813,-0.0753,-0.074,-0.0641,-0.0632,-0.0476,-0.0319,-0.0029,0.0222,0.0449,0.0577,0.0608,0.0653,0.0795,0.0868,0.0903,0.0964,0.0679,0.0681,0.0682,0.0684,0,-0.0796,-0.0802,-0.0823,-0.0882,-0.0906,-0.0926,-0.0927,-0.0937,-0.0858,-0.08,-0.0689,-0.0564,-0.0254,0.0055,0.0368,0.0514,0.0718,0.0652,0.079,0.0954,0.1006,0.1092,0.067,0.07,0.0698,0.0697,0.0696,0.0696,-0.0834,-0.0871,-0.0905,-0.0956,-0.0992,-0.1026,-0.1033,-0.1004,-0.0963,-0.0829,-0.0723,-0.0465,-0.0067,0.0398,0.0559,0.0907,0.0869,0.1015,0.1058,0.1075,0.1189,0.0808,0.0883,0.0883,0.0882,0.0882,0.0881,0,-0.0875,-0.0915,-0.0974,-0.1031,-0.1081,-0.1076,-0.1088,-0.1045,-0.0973,-0.0791,-0.0619,-0.0132,0.0277,0.0646,0.1109,0.1301,0.1335,0.1393,0.1444,0.1481,0.1134,0.118,0.1335,0.1335,0.1335,0.1335,0.1335,0.1335,-0.0895,-0.0959,-0.0991,-0.1082,-0.1122,-0.1144,-0.114,-0.1034,-0.0884,-0.0531,-0.0214,0.0029,0.0521,0.1205,0.163,0.1669,0.1825,0.1813,0.1893,0.1655,0.1623,0.1592,0.1651,0.1903,0.1904,0.2231,0.2234,0.2237]}],[{"header":{"parameterUnit":"m.s-1","parameterCategory":2,"la1":30.2991,"la2":30.254,"lo1":-89.0895,"lo2":-89.0444,"dy":0.0017,"dx":0.0017,"nx":28,"ny":28,"refTime":"2025-01-27T03:00:00:Z","depth":"2","parameterNumber":2,"parameterNumberName":"U-component_of_CURRENTS"},"data":[0,0,0,0,0,0,0,0,0,0,0,0,0,0,0,0,0,0,0,0,0,0,0,0,0,0,0,0,0,0,0,0,0,0,0,0,0,0,0,0,0,0,0,0,0,0,0,0,0,0,0,0,0,0,0,0,0,0,-0.2197,-0.2198,0,-0.2246,-0.2246,-0.2246,-0.2224,-0.2223,-0.2222,-0.2221,-0.2273,-0.2275,-0.2277,0,0,0,0,0,0,0,0,0,0,0,0,0,-0.2115,-0.2116,-0.2197,-0.2198,-0.2199,-0.2245,-0.2246,-0.2246,-0.2224,-0.2223,-0.2222,-0.2221,-0.2272,-0.2275,-0.2277,0,0,0,0,0,0,0,0,0,0,0,0,0,-0.2152,-0.2117,-0.2197,-0.2197,-0.2197,-0.2245,-0.2246,-0.2246,-0.2224,-0.2223,-0.2222,-0.222,-0.2271,-0.2274,-0.2277,-0.2323,0,0,-0.2287,-0.2289,0,0,0,0,0,0,0,0,-0.215,-0.2155,-0.2196,-0.2197,-0.2198,-0.2231,-0.2236,-0.2273,-0.2224,-0.221,-0.2221,-0.222,-0.2263,-0.2266,-0.2272,-0.2325,-0.2327,-0.2288,-0.229,-0.2291,-0.2292,0,0,0,0,0,0,0,-0.2147,-0.2153,-0.2212,-0.2197,-0.2198,-0.2205,-0.2208,-0.2243,-0.224,-0.2211,-0.221,-0.2223,-0.2262,-0.2269,-0.2274,-0.2328,-0.2288,-0.229,-0.2292,-0.2294,-0.2465,-0.2467,0,0,0,0,0,0,-0.215,-0.215,-0.2211,-0.2214,-0.2175,-0.2207,-0.2211,-0.2218,-0.2239,-0.2242,-0.2224,-0.2222,-0.2265,-0.227,-0.2275,-0.2348,-0.2291,-0.2294,-0.2296,-0.2462,-0.2466,-0.2468,0,0,0,0,0,0,-0.2148,-0.2155,-0.2209,-0.2187,-0.2194,-0.221,-0.2219,-0.222,-0.2236,-0.225,-0.2251,-0.224,-0.2264,-0.2271,-0.2325,-0.2348,-0.2295,-0.2298,-0.2459,-0.2463,-0.2467,-0.2481,0,0,0,0,0,0,-0.2145,-0.2153,-0.2154,-0.2187,-0.2196,-0.2251,-0.2221,-0.2222,-0.2247,-0.2244,-0.2265,-0.2267,-0.2263,-0.232,-0.2328,-0.2352,-0.2301,-0.2456,-0.2461,-0.2466,-0.2477,-0.2485,-0.2491,0,0,0,0,0,-0.2142,-0.2156,-0.2153,-0.216,-0.2197,-0.2253,-0.2258,-0.2262,-0.2249,-0.2268,-0.2283,-0.2267,-0.2356,-0.2325,-0.2333,-0.2359,-0.2454,-0.246,-0.2465,-0.2474,-0.2483,-0.2491,0,0,0,0,0,0,-0.2117,-0.2157,-0.2154,-0.2177,-0.2216,-0.225,-0.2263,-0.2275,-0.2302,-0.2293,-0.2301,-0.2306,-0.2364,-0.2373,-0.2338,-0.2428,-0.2403,-0.2411,-0.2407,-0.2416,-0.2423,-0.2375,-0.2304,0,0,0,0,0,-0.2114,-0.214,-0.2177,-0.22,-0.2213,-0.2241,-0.226,-0.2271,-0.2303,-0.2312,-0.2335,-0.2361,-0.2396,-0.2413,-0.2448,-0.2498,-0.2463,-0.2525,-0.2532,-0.2537,-0.2509,-0.2475,-0.2474,-0.2488,-0.2488,-0.2488,0,0,-0.2108,-0.2139,-0.2149,-0.2198,-0.2217,-0.2247,-0.2248,-0.2287,-0.2316,-0.2317,-0.2362,-0.2392,-0.242,-0.2471,-0.2497,-0.2478,-0.2525,-0.2545,-0.2549,-0.2516,-0.2481,-0.2479,-0.2477,-0.2492,-0.2491,-0.249,0,0,-0.2124,-0.2138,-0.216,-0.2199,-0.2245,-0.2262,-0.228,-0.2327,-0.2343,-0.2402,-0.2408,-0.2443,-0.2513,-0.252,-0.2535,-0.2607,-0.2568,-0.2643,-0.263,-0.2599,-0.2595,-0.2592,-0.2568,-0.2562,-0.2639,-0.264,-0.264,0,-0.2115,-0.2146,-0.2178,-0.2217,-0.2241,-0.2271,-0.2297,-0.2331,-0.2395,-0.2409,-0.2419,-0.2491,-0.2523,-0.2552,-0.2582,-0.2615,-0.2596,-0.2587,-0.26,-0.2596,-0.2592,-0.2568,-0.2561,-0.2641,-0.2641,-0.2641,-0.264,0,-0.2151,-0.2173,-0.2195,-0.2242,-0.2275,-0.2311,-0.2354,-0.2392,-0.2416,-0.244,-0.2487,-0.2523,-0.255,-0.2588,-0.2607,-0.2615,-0.2612,-0.2613,-0.256,-0.259,-0.2566,-0.2558,-0.2643,-0.2642,-0.2642,-0.2642,0,0,-0.2128,-0.22,-0.2207,-0.222,-0.2288,-0.2315,-0.2365,-0.2405,-0.2419,-0.2474,-0.2485,-0.2552,-0.2552,-0.2569,-0.2598,-0.2581,-0.2561,-0.2589,-0.2587,-0.2532,-0.2495,-0.2444,-0.243,-0.256,-0.2559,-0.2558,-0.2495,0,-0.2137,-0.2193,-0.2234,-0.2273,-0.2288,-0.2336,-0.2377,-0.2421,-0.2454,-0.2481,-0.2497,-0.2527,-0.2552,-0.2566,-0.2552,-0.2569,-0.2538,-0.2577,-0.2501,-0.2499,-0.2421,-0.2418,-0.2244,-0.2169,-0.2488,-0.2486,-0.2485,0,-0.2141,-0.218,-0.2214,-0.2265,-0.2276,-0.2307,-0.2347,-0.2394,-0.2437,-0.2464,-0.2472,-0.2494,-0.2499,-0.2508,-0.2483,-0.2509,-0.2493,-0.2489,-0.2486,-0.2414,-0.2431,-0.2191,-0.2142,-0.2472,-0.2473,-0.2474,-0.2475,0,-0.2082,-0.2155,-0.2173,-0.2199,-0.2268,-0.2287,-0.2322,-0.2375,-0.2406,-0.2439,-0.2453,-0.2454,-0.2461,-0.2432,-0.2445,-0.246,-0.24,-0.2416,-0.2341,-0.2339,-0.2158,-0.2142,-0.2354,-0.2354,-0.2354,-0.2354,-0.2354,0,-0.206,-0.2072,-0.2145,-0.2158,-0.2177,-0.2242,-0.2263,-0.2307,-0.2359,-0.2376,-0.2426,-0.2429,-0.2441,-0.2427,-0.2418,-0.2354,-0.237,-0.2314,-0.2306,-0.2166,-0.2152,-0.2389,-0.2394,-0.2352,-0.2352,-0.2353,-0.2353,0,-0.1978,-0.2032,-0.2053,-0.2125,-0.2144,-0.2154,-0.2227,-0.2245,-0.231,-0.2332,-0.2342,-0.24,-0.238,-0.2382,-0.2346,-0.2316,-0.2267,-0.2236,-0.2081,-0.2055,-0.2232,-0.2239,-0.2127,-0.2125,-0.2122,-0.212,-0.2119,0,-0.1936,-0.1939,-0.2007,-0.2017,-0.2046,-0.2081,-0.2106,-0.2196,-0.2223,-0.2306,-0.2304,-0.232,-0.2297,-0.2236,-0.2181,-0.2112,-0.2195,-0.1924,-0.1909,-0.2198,-0.2202,-0.2213,-0.2223,-0.169,-0.1685,-0.1681,-0.1677,0,-0.1844,-0.1871,-0.1891,-0.192,-0.1945,-0.1975,-0.2022,-0.2039,-0.2141,-0.2163,-0.2181,-0.2169,-0.2135,-0.1986,-0.1927,-0.1873,-0.1923,-0.1839,-0.2145,-0.1789,-0.1784,-0.179,-0.1813,-0.1641,-0.1645,-0.1648,-0.1649,-0.1651,-0.1761,-0.1757,-0.1789,-0.1801,-0.1832,-0.1843,-0.1826,-0.1888,-0.1901,-0.1904,-0.1986,-0.1905,-0.1899,-0.1702,-0.1622,-0.1563,-0.1699,-0.1619,-0.1631,-0.1648,-0.1623,-0.1616,-0.1437,-0.144,-0.1442,-0.1443,-0.1445,0,-0.1651,-0.1661,-0.1669,-0.1682,-0.1663,-0.1721,-0.1743,-0.1702,-0.1665,-0.1685,-0.1662,-0.1481,-0.1386,-0.1387,-0.1237,-0.122,-0.121,-0.117,-0.115,-0.1186,-0.1218,-0.1172,-0.0866,-0.0864,-0.0863,-0.0861,0,0,-0.1592,-0.1558,-0.1564,-0.1496,-0.1505,-0.1433,-0.1413,-0.1369,-0.1346,-0.125,-0.1197,-0.1288,-0.1325,-0.1087,-0.1042,-0.0923,-0.1042,-0.0876,-0.1337,-0.1347,-0.1377,-0.1471,-0.144,0,0,0,0,0]},{"header":{"parameterUnit":"m.s-1","parameterCategory":2,"la1":30.2991,"la2":30.254,"lo1":-89.0895,"lo2":-89.0444,"dy":0.0017,"dx":0.0017,"nx":28,"ny":28,"refTime":"2025-01-27T03:00:00:Z","depth":"2","parameterNumber":3,"parameterNumberName":"V-component_of_CURRENTS"},"data":[0,0,0,0,0,0,0,0,0,0,0,0,0,0,0,0,0,0,0,0,0,0,0,0,0,0,0,0,0,0,0,0,0,0,0,0,0,0,0,0,0,0,0,0,0,0,0,0,0,0,0,0,0,0,0,0,0,0,-0.0353,-0.0352,0,-0.027,-0.0269,-0.0268,-0.0205,-0.0205,-0.0204,-0.0204,-0.0047,-0.0043,-0.004,0,0,0,0,0,0,0,0,0,0,0,0,0,-0.0396,-0.0396,-0.0353,-0.0352,-0.0351,-0.027,-0.0269,-0.0268,-0.0205,-0.0205,-0.0204,-0.0204,-0.0048,-0.0044,-0.0039,0,0,0,0,0,0,0,0,0,0,0,0,0,-0.0351,-0.0396,-0.0353,-0.0311,-0.0306,-0.027,-0.0269,-0.0267,-0.0205,-0.0205,-0.0204,-0.0203,-0.005,-0.0044,-0.0039,-0.002,0,0,-0.0022,-0.0019,0,0,0,0,0,0,0,0,-0.0354,-0.035,-0.0318,-0.0314,-0.0308,-0.0248,-0.0227,-0.0181,-0.0206,-0.0243,-0.0204,-0.0203,-0.0108,-0.0098,-0.0084,-0.0012,-0.0006,-0.0021,-0.0018,-0.0016,-0.0014,0,0,0,0,0,0,0,-0.0357,-0.0353,-0.0319,-0.0317,-0.0311,-0.0275,-0.0268,-0.0218,-0.0179,-0.024,-0.0235,-0.0227,-0.0105,-0.009,-0.008,-0.0003,-0.0022,-0.0017,-0.0013,-0.0011,0.0122,0.0122,0,0,0,0,0,0,-0.0373,-0.0356,-0.0322,-0.0317,-0.0331,-0.0275,-0.0267,-0.0267,-0.0181,-0.0168,-0.0228,-0.0225,-0.01,-0.0086,-0.0074,-0.0029,-0.0016,-0.001,-0.0007,0.0122,0.0122,0.0122,0,0,0,0,0,0,-0.0375,-0.0371,-0.0325,-0.0335,-0.0326,-0.0276,-0.0276,-0.0266,-0.0244,-0.0173,-0.0158,-0.0215,-0.0098,-0.0082,-0.0033,-0.0023,-0.0008,-0.0003,0.0122,0.0122,0.0122,0.0049,0,0,0,0,0,0,-0.0376,-0.0373,-0.0375,-0.0336,-0.0326,-0.0306,-0.0276,-0.0265,-0.0241,-0.0235,-0.0157,-0.0142,-0.0096,-0.0042,-0.0027,-0.0015,0.0001,0.0121,0.0122,0.0122,0.0051,0.0047,0.0043,0,0,0,0,0,-0.0378,-0.0389,-0.0376,-0.0372,-0.0333,-0.0307,-0.0298,-0.0259,-0.0241,-0.0235,-0.0186,-0.0144,-0.0028,-0.0038,-0.0021,-0.0007,0.0121,0.0122,0.0122,0.0053,0.0048,0.0043,0,0,0,0,0,0,-0.0408,-0.0382,-0.0368,-0.0369,-0.0341,-0.0296,-0.0289,-0.0261,-0.0219,-0.0215,-0.0145,-0.0127,-0.008,-0.0035,-0.0047,0.0033,0.0055,0.0059,-0.0003,-0.0007,-0.0011,-0.0032,0.0006,0,0,0,0,0,-0.0418,-0.0417,-0.0385,-0.0384,-0.0376,-0.0333,-0.0316,-0.0293,-0.0252,-0.0232,-0.0175,-0.0116,-0.0066,-0.0032,0.0017,0.006,0.0098,0.0082,0.0077,0.0073,0.0068,0.013,0.013,0.0124,0.0124,0.0124,0,0,-0.0429,-0.0414,-0.0413,-0.0389,-0.0367,-0.036,-0.0321,-0.0305,-0.0292,-0.0221,-0.0183,-0.013,-0.006,-0.0016,0.0011,0.0025,0.0094,0.0074,0.007,0.0067,0.013,0.0131,0.0131,0.0124,0.0124,0.0124,0,0,-0.0455,-0.044,-0.0451,-0.0432,-0.0406,-0.0381,-0.0378,-0.0335,-0.0309,-0.0276,-0.0218,-0.0165,-0.0089,-0.0034,0.0002,0.0007,0.0066,0.003,-0.0001,0.0058,0.0059,0.006,0.0097,0.0102,0.0033,0.0032,0.0032,0,-0.0469,-0.0475,-0.0447,-0.0451,-0.0437,-0.0394,-0.0398,-0.0371,-0.0313,-0.0289,-0.0275,-0.0157,-0.0099,-0.0034,-0.0034,-0.0002,0.0033,0.0009,0.0052,0.0054,0.0056,0.0094,0.01,0.0029,0.0029,0.003,0.003,0,-0.0501,-0.0502,-0.0507,-0.0497,-0.048,-0.0476,-0.044,-0.0416,-0.0383,-0.0346,-0.0283,-0.021,-0.0135,-0.0107,-0.0071,-0.0015,0.0002,0.0033,0.0058,0.0052,0.0092,0.01,0.0024,0.0025,0.0026,0.0027,0,0,-0.0542,-0.0532,-0.0533,-0.0533,-0.0503,-0.0495,-0.0477,-0.0441,-0.0423,-0.0368,-0.0331,-0.0249,-0.0202,-0.0159,-0.0094,-0.0045,-0.0002,-0.0006,-0.0001,0.0019,0.0113,0.0141,0.0153,0.0037,0.0038,0.0039,0.0128,0,-0.0572,-0.0593,-0.0572,-0.0581,-0.0589,-0.0542,-0.0526,-0.0488,-0.0445,-0.0399,-0.0323,-0.0267,-0.0223,-0.0184,-0.013,-0.0028,0.0018,-0.003,0.0126,0.013,0.0147,0.0163,0.0135,0.0214,0.0137,0.0138,0.0139,0,-0.0612,-0.0618,-0.0638,-0.0622,-0.062,-0.0616,-0.0576,-0.0555,-0.0486,-0.0449,-0.0383,-0.0318,-0.0232,-0.0199,-0.0047,-0.008,0.0005,0.0074,0.008,0.0138,0.0174,0.0213,0.0232,0.0153,0.0152,0.0151,0.015,0,-0.0659,-0.0661,-0.0677,-0.0673,-0.0652,-0.0645,-0.0627,-0.0572,-0.0553,-0.0476,-0.0452,-0.0342,-0.0282,-0.0167,-0.0026,-0.0031,0.0133,0.0152,0.0253,0.0255,0.0279,0.0281,0.0253,0.0253,0.0253,0.0253,0.0253,0,-0.0701,-0.0713,-0.0704,-0.0715,-0.073,-0.0693,-0.0691,-0.0655,-0.0602,-0.0579,-0.0481,-0.0434,-0.027,-0.0155,-0.0035,0.0134,0.0134,0.0249,0.0287,0.0252,0.0251,0.0239,0.0236,0.0256,0.0256,0.0255,0.0254,0,-0.0753,-0.0745,-0.0767,-0.0758,-0.0758,-0.077,-0.075,-0.0744,-0.0684,-0.065,-0.0628,-0.0493,-0.0337,-0.0175,0.0026,0.0128,0.0283,0.0343,0.0278,0.0307,0.0362,0.0354,0.046,0.0462,0.0463,0.0464,0.0466,0,-0.078,-0.0799,-0.0813,-0.0836,-0.0836,-0.0844,-0.0851,-0.0798,-0.0786,-0.0685,-0.0671,-0.0514,-0.0389,-0.0094,0.0113,0.0331,0.0333,0.0428,0.042,0.036,0.0386,0.0376,0.0366,0.0416,0.0416,0.0417,0.0417,0,-0.0831,-0.0836,-0.0855,-0.0906,-0.0927,-0.0943,-0.0942,-0.0946,-0.0873,-0.0815,-0.0707,-0.0596,-0.0313,-0.0066,0.0214,0.0336,0.0389,0.0446,0.0424,0.0365,0.0326,0.0349,0.034,0.0422,0.0421,0.0421,0.0421,0.042,-0.0864,-0.0896,-0.0926,-0.097,-0.1001,-0.1027,-0.1034,-0.1004,-0.0963,-0.0848,-0.0743,-0.0534,-0.0314,0.0101,0.0288,0.0466,0.046,0.0508,0.0503,0.0499,0.0476,0.0441,0.0553,0.0553,0.0553,0.0553,0.0554,0,-0.0902,-0.0935,-0.0986,-0.1035,-0.1078,-0.1074,-0.1078,-0.1049,-0.0985,-0.0843,-0.0697,-0.0426,-0.014,0.0096,0.0379,0.0541,0.0522,0.0566,0.0504,0.0499,0.0494,0.0468,0.0545,0.0546,0.0546,0.0547,0,0,-0.0922,-0.0976,-0.1002,-0.1081,-0.1117,-0.1141,-0.1137,-0.1063,-0.095,-0.0794,-0.0619,-0.0399,-0.0117,0.0081,0.0274,0.0422,0.0419,0.0436,0.0424,0.0322,0.0316,0.0443,0.0395,0,0,0,0,0]}],[{"header":{"parameterUnit":"m.s-1","parameterCategory":2,"la1":30.2991,"la2":30.254,"lo1":-89.0895,"lo2":-89.0444,"dy":0.0017,"dx":0.0017,"nx":28,"ny":28,"refTime":"2025-01-27T03:00:00:Z","depth":"4","parameterNumber":2,"parameterNumberName":"U-component_of_CURRENTS"},"data":[0,0,0,0,0,0,0,0,0,0,0,0,0,0,0,0,0,0,0,0,0,0,0,0,0,0,0,0,0,0,0,0,0,0,0,0,0,0,0,0,0,0,0,0,0,0,0,0,0,0,0,0,0,0,0,0,0,0,-0.1336,-0.1336,0,-0.1379,-0.1379,-0.138,-0.1396,-0.1396,-0.1396,-0.1396,-0.148,-0.1482,-0.1484,0,0,0,0,0,0,0,0,0,0,0,0,0,-0.1283,-0.1284,-0.1336,-0.1336,-0.1337,-0.1379,-0.1379,-0.138,-0.1396,-0.1396,-0.1396,-0.1396,-0.1479,-0.1482,-0.1484,0,0,0,0,0,0,0,0,0,0,0,0,0,-0.1313,-0.1284,-0.1336,-0.1351,-0.1353,-0.1379,-0.1379,-0.138,-0.1396,-0.1396,-0.1396,-0.1396,-0.1478,-0.1481,-0.1485,-0.1506,0,0,-0.1495,-0.1496,0,0,0,0,0,0,0,0,-0.1311,-0.1314,-0.1348,-0.135,-0.1352,-0.1383,-0.1392,-0.1425,-0.1396,-0.1378,-0.1396,-0.1396,-0.1452,-0.1457,-0.1463,-0.151,-0.1514,-0.1495,-0.1497,-0.1499,-0.15,0,0,0,0,0,0,0,-0.1309,-0.1313,-0.1352,-0.1349,-0.1351,-0.1361,-0.1365,-0.1398,-0.1415,-0.138,-0.1381,-0.1388,-0.1453,-0.146,-0.1466,-0.1515,-0.1495,-0.1498,-0.15,-0.1502,-0.165,-0.1652,0,0,0,0,0,0,-0.1305,-0.1311,-0.135,-0.1353,-0.1332,-0.1362,-0.1367,-0.1372,-0.1413,-0.142,-0.1388,-0.1389,-0.1454,-0.1462,-0.1469,-0.1552,-0.1499,-0.1502,-0.1504,-0.1648,-0.165,-0.1652,0,0,0,0,0,0,-0.1304,-0.1308,-0.1349,-0.1334,-0.134,-0.1363,-0.1369,-0.1373,-0.1403,-0.142,-0.1426,-0.1416,-0.1455,-0.1464,-0.1528,-0.1553,-0.1504,-0.1507,-0.1646,-0.1649,-0.1651,-0.1682,0,0,0,0,0,0,-0.1302,-0.1307,-0.1324,-0.1334,-0.1341,-0.1382,-0.137,-0.1374,-0.1406,-0.1408,-0.1446,-0.1452,-0.1455,-0.1523,-0.1531,-0.1557,-0.1509,-0.1643,-0.1647,-0.165,-0.1679,-0.1686,-0.1692,0,0,0,0,0,-0.13,-0.1321,-0.1324,-0.133,-0.1358,-0.1383,-0.1389,-0.1403,-0.1408,-0.1429,-0.1461,-0.1452,-0.1551,-0.1528,-0.1537,-0.1564,-0.1642,-0.1646,-0.165,-0.1676,-0.1685,-0.1692,0,0,0,0,0,0,-0.1305,-0.1325,-0.1329,-0.1354,-0.1376,-0.1387,-0.1413,-0.142,-0.146,-0.1471,-0.1482,-0.1492,-0.1553,-0.1563,-0.1537,-0.1619,-0.1593,-0.1599,-0.1609,-0.1618,-0.1624,-0.1611,-0.1512,0,0,0,0,0,-0.1314,-0.1337,-0.1352,-0.1376,-0.1389,-0.1406,-0.1423,-0.1434,-0.1463,-0.148,-0.1509,-0.1543,-0.1575,-0.16,-0.1631,-0.1683,-0.1676,-0.1706,-0.1713,-0.1718,-0.1715,-0.1736,-0.1743,-0.1666,-0.1666,-0.1666,0,0,-0.1325,-0.1338,-0.1353,-0.138,-0.1398,-0.1425,-0.1417,-0.1453,-0.1477,-0.1485,-0.1545,-0.1571,-0.1595,-0.1648,-0.1676,-0.1662,-0.1738,-0.1723,-0.1727,-0.1722,-0.1741,-0.1748,-0.1754,-0.1669,-0.1669,-0.1668,0,0,-0.1351,-0.137,-0.1396,-0.1415,-0.1447,-0.1459,-0.1475,-0.1506,-0.1525,-0.1582,-0.159,-0.1632,-0.1694,-0.1705,-0.1719,-0.1784,-0.1771,-0.1803,-0.1826,-0.1846,-0.1852,-0.1857,-0.1854,-0.1859,-0.1806,-0.1806,-0.1806,0,-0.1366,-0.1395,-0.1409,-0.1435,-0.146,-0.1477,-0.1512,-0.1531,-0.158,-0.1602,-0.161,-0.1696,-0.1713,-0.1761,-0.1779,-0.1795,-0.1803,-0.179,-0.1852,-0.1857,-0.1861,-0.1858,-0.1862,-0.1808,-0.1808,-0.1808,-0.1807,0,-0.1399,-0.1433,-0.1453,-0.1491,-0.1519,-0.1555,-0.1578,-0.1615,-0.1644,-0.1661,-0.1727,-0.1755,-0.1801,-0.1815,-0.1817,-0.1863,-0.1857,-0.1855,-0.1824,-0.187,-0.1864,-0.1868,-0.1811,-0.181,-0.181,-0.1809,0,0,-0.1408,-0.1467,-0.1478,-0.1504,-0.1554,-0.1577,-0.1625,-0.1669,-0.1704,-0.1748,-0.1795,-0.184,-0.1853,-0.187,-0.1882,-0.1898,-0.1928,-0.1895,-0.1895,-0.1878,-0.1967,-0.1827,-0.1817,-0.1945,-0.1946,-0.1947,-0.1948,0,-0.1436,-0.1491,-0.152,-0.1582,-0.1611,-0.1646,-0.169,-0.1728,-0.1766,-0.1816,-0.1835,-0.1888,-0.1874,-0.1908,-0.1921,-0.1933,-0.1943,-0.1928,-0.1938,-0.1937,-0.1795,-0.1818,-0.1951,-0.1951,-0.1952,-0.1952,-0.1953,0,-0.1454,-0.1492,-0.1555,-0.1624,-0.1644,-0.1687,-0.176,-0.18,-0.1854,-0.1885,-0.1927,-0.1946,-0.1978,-0.1964,-0.1988,-0.1985,-0.1978,-0.1977,-0.1977,-0.1834,-0.1804,-0.1899,-0.196,-0.1959,-0.1959,-0.1958,-0.1958,0,-0.1431,-0.1515,-0.1568,-0.1591,-0.167,-0.1714,-0.1763,-0.1825,-0.1858,-0.1931,-0.1963,-0.2005,-0.2031,-0.2038,-0.2018,-0.202,-0.2032,-0.2031,-0.1894,-0.1884,-0.1996,-0.199,-0.2043,-0.2043,-0.2043,-0.2043,-0.2043,0,-0.1424,-0.1469,-0.1567,-0.1588,-0.1655,-0.1719,-0.1789,-0.1837,-0.1911,-0.1939,-0.1997,-0.2015,-0.2055,-0.2058,-0.204,-0.1962,-0.2046,-0.189,-0.1873,-0.201,-0.2006,-0.1998,-0.1992,-0.2043,-0.2043,-0.2043,-0.2043,0,-0.1365,-0.1436,-0.1495,-0.1601,-0.1637,-0.168,-0.1783,-0.1821,-0.1909,-0.1948,-0.1972,-0.2031,-0.2024,-0.2034,-0.2039,-0.1968,-0.1926,-0.188,-0.2013,-0.2006,-0.1761,-0.1758,-0.1727,-0.1722,-0.1718,-0.1714,-0.1711,0,-0.133,-0.1358,-0.1478,-0.1512,-0.1562,-0.1642,-0.1686,-0.1795,-0.1826,-0.1927,-0.1927,-0.1966,-0.198,-0.1861,-0.1898,-0.1845,-0.1822,-0.1794,-0.178,-0.1741,-0.1729,-0.1733,-0.1735,-0.1704,-0.1703,-0.1702,-0.1701,0,-0.1252,-0.1312,-0.1358,-0.1431,-0.1492,-0.1547,-0.1623,-0.1633,-0.1743,-0.1844,-0.1816,-0.1797,-0.1782,-0.1759,-0.1726,-0.1693,-0.181,-0.175,-0.1758,-0.1745,-0.1713,-0.1707,-0.1714,-0.1686,-0.1688,-0.169,-0.1691,0,-0.119,-0.1205,-0.1278,-0.1325,-0.1398,-0.1419,-0.1479,-0.1509,-0.1553,-0.1667,-0.1651,-0.169,-0.1757,-0.1679,-0.1652,-0.1601,-0.1577,-0.1527,-0.1547,-0.1564,-0.1508,-0.1444,-0.1311,0,0,0,0,0,-0.1119,-0.1125,-0.1164,-0.1213,-0.1279,-0.1318,-0.1415,-0.1479,-0.1588,-0.1519,-0.1578,-0.155,-0.1503,-0.1531,-0.144,-0.1583,-0.159,-0.1473,-0.1545,-0.1605,-0.1622,-0.157,0,0,0,0,0,0,-0.1072,-0.1107,-0.1121,-0.1101,-0.111,-0.117,-0.1222,-0.1305,-0.1275,-0.1387,-0.1363,-0.1449,-0.1422,-0.1516,-0.1403,-0.1411,-0.1422,-0.1509,-0.1504,-0.1595,-0.1611,-0.1624,-0.1577,0,0,0,0,0]},{"header":{"parameterUnit":"m.s-1","parameterCategory":2,"la1":30.2991,"la2":30.254,"lo1":-89.0895,"lo2":-89.0444,"dy":0.0017,"dx":0.0017,"nx":28,"ny":28,"refTime":"2025-01-27T03:00:00:Z","depth":"4","parameterNumber":3,"parameterNumberName":"V-component_of_CURRENTS"},"data":[0,0,0,0,0,0,0,0,0,0,0,0,0,0,0,0,0,0,0,0,0,0,0,0,0,0,0,0,0,0,0,0,0,0,0,0,0,0,0,0,0,0,0,0,0,0,0,0,0,0,0,0,0,0,0,0,0,0,-0.0372,-0.0372,0,-0.0351,-0.0351,-0.035,-0.0326,-0.0326,-0.0325,-0.0325,-0.0292,-0.0291,-0.029,0,0,0,0,0,0,0,0,0,0,0,0,0,-0.0368,-0.0368,-0.0372,-0.0372,-0.0372,-0.0351,-0.0351,-0.035,-0.0326,-0.0326,-0.0325,-0.0325,-0.0292,-0.0291,-0.029,0,0,0,0,0,0,0,0,0,0,0,0,0,-0.036,-0.0368,-0.0372,-0.0358,-0.0356,-0.0351,-0.0351,-0.035,-0.0326,-0.0326,-0.0325,-0.0325,-0.0292,-0.0291,-0.029,-0.0294,0,0,-0.0287,-0.0287,0,0,0,0,0,0,0,0,-0.036,-0.036,-0.036,-0.0359,-0.0357,-0.0341,-0.0337,-0.0331,-0.0326,-0.0337,-0.0325,-0.0325,-0.0308,-0.0305,-0.0302,-0.0292,-0.0291,-0.0287,-0.0287,-0.0286,-0.0286,0,0,0,0,0,0,0,-0.0361,-0.0361,-0.0363,-0.036,-0.0358,-0.0344,-0.0342,-0.0335,-0.0325,-0.0336,-0.0334,-0.0333,-0.0307,-0.0303,-0.0301,-0.0291,-0.0287,-0.0287,-0.0286,-0.0286,-0.0267,-0.0267,0,0,0,0,0,0,-0.0367,-0.0362,-0.0364,-0.0363,-0.0358,-0.0344,-0.0343,-0.0346,-0.0325,-0.0321,-0.0333,-0.0332,-0.0305,-0.0302,-0.03,-0.0301,-0.0286,-0.0286,-0.0285,-0.0267,-0.0267,-0.0267,0,0,0,0,0,0,-0.0367,-0.0367,-0.0365,-0.0362,-0.036,-0.0345,-0.0349,-0.0346,-0.0345,-0.0323,-0.0319,-0.0336,-0.0304,-0.0301,-0.0294,-0.03,-0.0285,-0.0284,-0.0267,-0.0267,-0.0267,-0.0305,0,0,0,0,0,0,-0.0367,-0.0368,-0.0373,-0.0362,-0.0361,-0.0366,-0.035,-0.0346,-0.0345,-0.0343,-0.0324,-0.032,-0.0304,-0.0296,-0.0294,-0.0298,-0.0284,-0.0267,-0.0267,-0.0267,-0.0304,-0.0307,-0.0309,0,0,0,0,0,-0.0367,-0.0377,-0.0374,-0.0374,-0.0369,-0.0366,-0.0364,-0.0351,-0.0346,-0.0348,-0.0333,-0.0321,-0.0294,-0.0296,-0.0293,-0.0297,-0.0267,-0.0267,-0.0267,-0.0303,-0.0306,-0.0309,0,0,0,0,0,0,-0.0378,-0.0375,-0.0371,-0.038,-0.0375,-0.0362,-0.0364,-0.0357,-0.0348,-0.0348,-0.0325,-0.0321,-0.0317,-0.0301,-0.0303,-0.029,-0.0277,-0.0276,-0.0305,-0.0308,-0.0311,-0.0304,-0.0283,0,0,0,0,0,-0.0384,-0.039,-0.0384,-0.0391,-0.0391,-0.038,-0.0378,-0.0371,-0.0362,-0.0357,-0.0342,-0.0326,-0.0315,-0.0308,-0.0296,-0.0292,-0.0247,-0.0291,-0.0294,-0.0296,-0.0288,-0.0214,-0.0209,-0.0267,-0.0267,-0.0267,0,0,-0.039,-0.0389,-0.0393,-0.0394,-0.0389,-0.0395,-0.0377,-0.038,-0.0384,-0.0356,-0.0355,-0.0338,-0.0316,-0.031,-0.0307,-0.0299,-0.0258,-0.0296,-0.0298,-0.0288,-0.0214,-0.0208,-0.0202,-0.0267,-0.0267,-0.0267,0,0,-0.0407,-0.0407,-0.0419,-0.0417,-0.0416,-0.041,-0.0413,-0.0404,-0.04,-0.0401,-0.0377,-0.0357,-0.035,-0.0323,-0.0312,-0.032,-0.0276,-0.0324,-0.033,-0.0259,-0.0253,-0.0248,-0.0193,-0.0182,-0.0323,-0.0323,-0.0323,0,-0.0415,-0.0428,-0.0421,-0.0431,-0.0431,-0.042,-0.043,-0.0428,-0.0417,-0.0407,-0.0407,-0.0365,-0.0351,-0.0323,-0.0329,-0.0325,-0.0282,-0.0323,-0.0261,-0.0255,-0.0248,-0.0193,-0.018,-0.0325,-0.0324,-0.0324,-0.0324,0,-0.044,-0.0449,-0.0456,-0.0465,-0.0465,-0.0472,-0.0467,-0.0465,-0.046,-0.0447,-0.0422,-0.0392,-0.0358,-0.0357,-0.0352,-0.0303,-0.0288,-0.0275,-0.0253,-0.0244,-0.0187,-0.0173,-0.0327,-0.0327,-0.0326,-0.0326,0,0,-0.0459,-0.0471,-0.0475,-0.0481,-0.0482,-0.0485,-0.0491,-0.0484,-0.0477,-0.0461,-0.0435,-0.0416,-0.0383,-0.0367,-0.0342,-0.029,-0.022,-0.027,-0.0266,-0.0215,-0.0069,-0.0096,-0.0083,-0.0194,-0.0192,-0.019,-0.0051,0,-0.0479,-0.0506,-0.0502,-0.0522,-0.0534,-0.052,-0.0522,-0.0513,-0.0498,-0.047,-0.0427,-0.0399,-0.0392,-0.037,-0.0316,-0.0244,-0.0183,-0.0259,-0.0085,-0.008,-0.0103,-0.0067,-0.0182,-0.0041,-0.0038,-0.0035,-0.0033,0,-0.0505,-0.0518,-0.0545,-0.0547,-0.0549,-0.0559,-0.0546,-0.0545,-0.0505,-0.0486,-0.0439,-0.0402,-0.0332,-0.0323,-0.0178,-0.0226,-0.015,-0.0091,-0.0084,-0.0082,-0.008,-0.0047,-0.0008,-0.001,-0.0012,-0.0013,-0.0015,0,-0.0527,-0.0545,-0.0566,-0.057,-0.0574,-0.0579,-0.0578,-0.0553,-0.0547,-0.0488,-0.0467,-0.0376,-0.0327,-0.0216,-0.0119,-0.0134,0.0048,0.0048,0.0102,0.0101,0.01,0.0093,0.0172,0.0172,0.0171,0.0171,0.0171,0,-0.0548,-0.0565,-0.0582,-0.0596,-0.0618,-0.0604,-0.0611,-0.0595,-0.0558,-0.0541,-0.0474,-0.043,-0.0297,-0.0192,-0.0095,0.004,0.0075,0.0116,0.0143,0.0077,0.0066,0.011,0.0101,0.0176,0.0175,0.0174,0.0173,0,-0.057,-0.058,-0.061,-0.0625,-0.0635,-0.0651,-0.0656,-0.0653,-0.0611,-0.0581,-0.0562,-0.0455,-0.0317,-0.0187,0.0002,0.0064,0.02,0.0242,0.0158,0.0175,0.0203,0.0191,0.0331,0.0332,0.0332,0.0332,0.0333,0,-0.0581,-0.0601,-0.0643,-0.0671,-0.0685,-0.0707,-0.0721,-0.0692,-0.068,-0.0599,-0.0579,-0.0447,-0.0367,-0.0113,0.0017,0.0219,0.0233,0.0305,0.0258,0.0212,0.0224,0.0211,0.0198,0.0333,0.0333,0.0333,0.0333,0,-0.0603,-0.0625,-0.0651,-0.0713,-0.0746,-0.0768,-0.0779,-0.0773,-0.0722,-0.0688,-0.0571,-0.0442,-0.0287,-0.011,0.0044,0.0181,0.0259,0.0309,0.0309,0.0266,0.0216,0.0225,0.0212,0.0335,0.0334,0.0334,0.0334,0,-0.0621,-0.065,-0.0694,-0.074,-0.0789,-0.081,-0.0813,-0.0775,-0.0748,-0.0648,-0.0609,-0.0438,-0.0331,-0.0128,0.0012,0.0144,0.0171,0.0204,0.021,0.0211,0.0117,0.0032,0.0134,0,0,0,0,0,-0.0631,-0.0665,-0.0717,-0.0766,-0.0813,-0.0835,-0.0839,-0.0826,-0.0778,-0.0698,-0.0646,-0.0499,-0.0272,-0.017,-0.004,-0.0003,0.0174,0.0151,0.021,0.0341,0.034,0.0246,0,0,0,0,0,0,-0.064,-0.0692,-0.0716,-0.0772,-0.081,-0.085,-0.0854,-0.0824,-0.0762,-0.0698,-0.0571,-0.0485,-0.0265,-0.0349,-0.0044,-0.0003,0.0048,0.0264,0.0266,0.0342,0.0341,0.034,0.0242,0,0,0,0,0]}]]